TimeCDT,TemperatureF,Dew PointF,Humidity,Sea Level PressureIn,VisibilityMPH,Wind Direction,Wind SpeedMPH,Gust SpeedMPH,PrecipitationIn,Events,Conditions,WindDirDegrees,DateUTC
12:15 AM,74.7,56.7,53,30.07,10.0,South,9.2,-,N/A,,Clear,170,2013-06-14 05:15:00
12:35 AM,73.9,56.8,55,30.07,10.0,South,9.2,-,N/A,,Clear,170,2013-06-14 05:35:00
12:55 AM,73.9,56.7,55,30.07,10.0,South,10.4,-,N/A,,Clear,180,2013-06-14 05:55:00
1:15 AM,74.8,56.3,52,30.06,10.0,South,11.5,-,N/A,,Clear,170,2013-06-14 06:15:00
1:35 AM,75.2,55.8,51,30.06,10.0,South,11.5,-,N/A,,Clear,180,2013-06-14 06:35:00
1:55 AM,75.2,55.6,50,30.06,10.0,South,11.5,-,N/A,,Clear,180,2013-06-14 06:55:00
2:15 AM,74.7,55.8,52,30.05,10.0,South,11.5,-,N/A,,Clear,180,2013-06-14 07:15:00
2:35 AM,73.9,56.3,54,30.05,10.0,South,10.4,-,N/A,,Clear,180,2013-06-14 07:35:00
2:55 AM,73.0,56.3,56,30.04,10.0,South,10.4,-,N/A,,Clear,180,2013-06-14 07:55:00
3:15 AM,72.3,56.1,57,30.05,10.0,South,11.5,-,N/A,,Clear,190,2013-06-14 08:15:00
3:35 AM,70.9,56.1,59,30.04,10.0,SSW,11.5,-,N/A,,Clear,200,2013-06-14 08:35:00
3:55 AM,70.7,56.3,60,30.03,10.0,SSW,11.5,-,N/A,,Clear,210,2013-06-14 08:55:00
4:15 AM,69.3,56.3,63,30.03,10.0,SSW,10.4,-,N/A,,Clear,200,2013-06-14 09:15:00
4:35 AM,68.2,56.3,66,30.03,10.0,SSW,10.4,-,N/A,,Clear,200,2013-06-14 09:35:00
4:55 AM,68.0,56.3,66,30.03,10.0,SSW,8.1,-,N/A,,Clear,200,2013-06-14 09:55:00
5:15 AM,66.2,56.3,70,30.03,10.0,SSW,8.1,-,N/A,,Clear,200,2013-06-14 10:15:00
5:35 AM,65.7,56.5,72,30.03,10.0,SSW,10.4,-,N/A,,Clear,200,2013-06-14 10:35:00
5:55 AM,65.8,56.7,72,30.04,10.0,SSW,9.2,-,N/A,,Clear,210,2013-06-14 10:55:00
6:15 AM,67.3,57.6,71,30.05,7.0,SW,11.5,-,N/A,,Clear,220,2013-06-14 11:15:00
6:35 AM,68.2,58.3,71,30.05,10.0,SW,12.7,-,N/A,,Clear,220,2013-06-14 11:35:00
6:55 AM,69.3,58.6,69,30.05,10.0,SW,12.7,-,N/A,,Clear,220,2013-06-14 11:55:00
7:15 AM,70.5,58.6,66,30.05,10.0,SW,12.7,-,N/A,,Clear,220,2013-06-14 12:15:00
7:35 AM,72.1,58.6,62,30.06,10.0,SW,11.5,-,N/A,,Clear,220,2013-06-14 12:35:00
7:55 AM,72.5,58.5,61,30.06,10.0,SW,10.4,-,N/A,,Clear,230,2013-06-14 12:55:00
8:15 AM,75.0,58.5,56,30.06,10.0,SW,11.5,-,N/A,,Clear,220,2013-06-14 13:15:00
8:35 AM,75.2,58.1,55,30.06,10.0,SSW,11.5,-,N/A,,Clear,210,2013-06-14 13:35:00
8:55 AM,76.3,58.3,54,30.06,10.0,SSW,12.7,-,N/A,,Clear,210,2013-06-14 13:55:00
9:15 AM,80.6,56.3,43,30.07,10.0,SSW,17.3,-,N/A,,Clear,210,2013-06-14 14:15:00
9:35 AM,80.4,57.0,45,30.07,10.0,SSW,17.3,23.0,N/A,,Clear,200,2013-06-14 14:35:00
9:55 AM,81.7,57.2,43,30.07,10.0,SSW,17.3,-,N/A,,Clear,200,2013-06-14 14:55:00
10:15 AM,84.0,55.6,38,30.07,10.0,SSW,19.6,24.2,N/A,,Clear,200,2013-06-14 15:15:00
10:35 AM,84.9,53.8,34,30.07,10.0,SSW,24.2,27.6,N/A,,Clear,200,2013-06-14 15:35:00
10:55 AM,85.3,53.8,34,30.06,10.0,SSW,20.7,27.6,N/A,,Clear,200,2013-06-14 15:55:00
11:15 AM,84.6,51.8,32,30.06,10.0,South,24.2,27.6,N/A,,Clear,190,2013-06-14 16:15:00
11:35 AM,87.1,52.7,31,30.05,10.0,South,20.7,28.8,N/A,,Clear,180,2013-06-14 16:35:00
11:55 AM,87.4,53.2,31,30.05,10.0,South,21.9,29.9,N/A,,Clear,190,2013-06-14 16:55:00
12:15 PM,88.2,51.6,28,30.05,10.0,South,27.6,31.1,N/A,,Clear,180,2013-06-14 17:15:00
12:35 PM,87.4,52.5,30,30.05,10.0,South,21.9,28.8,N/A,,Clear,180,2013-06-14 17:35:00
12:55 PM,88.7,51.8,28,30.05,10.0,SSW,26.5,32.2,N/A,,Clear,200,2013-06-14 17:55:00
1:15 PM,86.7,52.7,31,30.04,10.0,SSW,25.3,29.9,N/A,,Clear,200,2013-06-14 18:15:00
1:35 PM,89.1,52.3,28,30.04,10.0,SSW,18.4,26.5,N/A,,Clear,200,2013-06-14 18:35:00
1:55 PM,89.6,52.0,28,30.03,10.0,South,17.3,27.6,N/A,,Clear,190,2013-06-14 18:55:00
2:15 PM,91.6,50.9,25,30.02,10.0,South,19.6,25.3,N/A,,Clear,180,2013-06-14 19:15:00
2:35 PM,90.7,51.6,26,30.02,10.0,South,16.1,26.5,N/A,,Clear,190,2013-06-14 19:35:00
3:15 PM,86.5,52.0,30,30.02,10.0,South,27.6,35.7,N/A,,Clear,170,2013-06-14 20:15:00
3:35 PM,85.5,49.8,29,30.01,10.0,South,25.3,34.5,N/A,,Clear,170,2013-06-14 20:35:00
3:55 PM,85.8,47.1,26,30.02,10.0,South,26.5,32.2,N/A,,Clear,190,2013-06-14 20:55:00
4:15 PM,84.7,48.9,29,30.01,10.0,SSW,23.0,-,N/A,,Clear,200,2013-06-14 21:15:00
4:35 PM,86.9,49.5,27,30.00,10.0,South,26.5,31.1,N/A,,Clear,190,2013-06-14 21:35:00
4:55 PM,86.2,49.6,28,29.99,10.0,South,18.4,27.6,N/A,,Clear,190,2013-06-14 21:55:00
5:15 PM,86.9,46.2,24,29.99,10.0,South,24.2,28.8,N/A,,Clear,180,2013-06-14 22:15:00
5:35 PM,82.6,55.9,40,29.99,10.0,South,23.0,35.7,N/A,,Clear,170,2013-06-14 22:35:00
5:55 PM,82.4,51.8,35,29.98,10.0,South,28.8,35.7,N/A,,Clear,180,2013-06-14 22:55:00
6:15 PM,81.9,45.1,27,29.98,10.0,South,23.0,31.1,N/A,,Clear,180,2013-06-14 23:15:00
6:35 PM,80.8,46.8,30,29.98,10.0,South,26.5,32.2,N/A,,Scattered Clouds,180,2013-06-14 23:35:00
6:55 PM,79.3,53.1,40,29.99,10.0,South,24.2,31.1,N/A,,Mostly Cloudy,180,2013-06-14 23:55:00
7:15 PM,77.0,55.9,48,30.00,10.0,South,19.6,28.8,N/A,,Overcast,190,2013-06-15 00:15:00
7:35 PM,76.1,56.7,51,30.01,10.0,SSW,16.1,24.2,N/A,,Overcast,200,2013-06-15 00:35:00
7:55 PM,75.9,57.0,52,30.02,10.0,South,16.1,19.6,N/A,,Mostly Cloudy,190,2013-06-15 00:55:00
8:15 PM,75.4,57.0,53,30.03,10.0,South,16.1,-,N/A,,Clear,180,2013-06-15 01:15:00
8:35 PM,75.2,55.4,50,30.03,10.0,South,15.0,24.2,N/A,,Mostly Cloudy,190,2013-06-15 01:35:00
8:55 PM,74.7,56.3,53,30.03,10.0,South,17.3,23.0,N/A,,Overcast,170,2013-06-15 01:55:00
9:15 PM,72.7,58.1,60,30.05,10.0,South,17.3,-,N/A,,Drizzle,170,2013-06-15 02:15:00
9:35 PM,69.8,59.9,71,30.05,10.0,SSE,16.1,20.7,N/A,Rain,Light Rain,150,2013-06-15 02:35:00
9:55 PM,68.0,60.4,77,30.04,10.0,SE,15.0,-,N/A,,Light Drizzle,130,2013-06-15 02:55:00
10:15 PM,67.1,60.8,80,30.05,10.0,SE,11.5,-,N/A,,Overcast,140,2013-06-15 03:15:00
10:35 PM,67.5,60.8,79,30.06,10.0,SSE,11.5,-,N/A,,Overcast,150,2013-06-15 03:35:00
10:55 PM,67.8,60.8,78,30.07,10.0,SSE,16.1,-,N/A,Rain,Light Rain,160,2013-06-15 03:55:00
11:15 PM,67.1,61.3,82,30.07,10.0,South,12.7,17.3,N/A,,Overcast,170,2013-06-15 04:15:00
11:35 PM,67.3,60.4,79,30.07,10.0,South,18.4,-,N/A,,Overcast,170,2013-06-15 04:35:00
11:55 PM,66.7,60.6,81,30.06,10.0,South,19.6,25.3,N/A,,Overcast,170,2013-06-15 04:55:00